Weather in Suure-Jaani

Estonia     58°31′46″N   25°28′03″E
temp.,
°C
wind,
m/s
gust,
m/s
humid.,
%
clouds,
%
prec.,
mm/h
press.,
hPa
HPBL,
m
14 april, wed
wed1400:00+3wsw257497 0.0 1022222
03:00+2w248361 0.0 1021114
06:00+1nw228616 0.0 102155
09:00+4nw23668 0.0 1021367
12:00+8nnw33485 0.0 10221361
15:00+10nnw3340100 0.0 10221918
18:00+9n3444100 0.0 10221695
21:00+5n3964100 0.0 1024322
15 april, thu
thu1500:00+2nne2777100 0.0 1026237
03:00+2ne3107099 0.0 1027315
06:00+1nne3107889 0.0 1028286
09:00+4ne4105964 0.0 1029676
12:00+8ne584395 0.0 10291344
15:00+9ne68369 0.0 10281456
18:00+8ne58435 0.0 10291143
21:00+4ne512605 0.0 1029532
16 april, fri
fri1600:00+2ne4126434 0.0 1029422
03:00+1ne4127192 0.0 1029364
06:000ne413759 0.0 1029397
09:00+4ne51363100 0.0 1029607
12:00+9ene694199 0.0 10281021
15:00+10ene61036100 0.0 10281208
18:00+10ene5104198 0.0 10281365
21:00+7ne41056100 0.0 1029455
17 april, sat
sat1700:00+6ne4126171 0.0 1030519
03:00+5ene4126276 0.0 1030479
06:00+4ene4126998 0.0 1030417
09:00+7e5115966 0.0 1030496
12:00+11e584712 0.0 1030813
15:00+13e574294 0.0 10301068
18:00+13e474477 0.0 10301090
21:00+8ene3105679 0.0 1030265
18 april, sun
sun1800:00+6e3116689 0.0 1031241
03:00+4e397475 0.0 1031192
06:00+3e398056 0.0 1031182
09:00+8e486012 0.0 1031366
12:00+12ese574110 0.0 10301136
15:00+14ese57344 0.0 10291526
18:00+14e46390 0.0 10281551
21:00+8e38610 0.0 1029153